Wind_Speed
17 13 7 6 16 27 38 46 52 55 56 57 58 63 74 87 97 105 112 115 115 114 111 106 102 96 91 87 82 78 75 72 69 67 67 66 65 63
13 10 6 5 11 20 29 38 45 50 52 55 56 59 67 79 89 98 106 112 114 113 111 108 104 99 93 88 83 79 75 73 71 68 67 65 66 65
12 9 6 5 9 16 23 31 38 44 47 50 53 55 62 72 83 91 100 108 113 113 111 109 106 101 95 90 85 80 75 72 72 70 67 66 64 64
12 9 7 6 9 13 18 25 31 38 42 45 50 52 57 66 76 85 94 103 110 112 112 110 107 103 98 92 86 82 77 73 69 69 68 66 64 63
13 10 8 8 9 12 15 20 26 32 37 41 46 49 53 61 70 79 88 98 106 111 111 110 108 105 100 95 89 84 80 75 69 66 64 64 63 61
13 10 8 7 8 10 13 17 21 26 32 37 42 46 50 58 66 75 83 93 102 108 110 110 108 106 103 99 93 87 80 74 71 67 62 57 58 58
14 9 7 7 7 9 11 14 18 22 28 33 37 42 48 55 63 71 79 88 97 104 108 109 108 106 104 101 95 90 84 78 69 63 59 55 52 54
15 10 5 5 6 8 10 12 15 19 24 29 34 40 46 53 60 67 75 83 91 101 105 107 107 106 104 102 98 93 85 81 76 65 58 53 50 51
16 10 4 3 4 6 9 11 14 17 21 26 31 38 44 51 58 64 72 79 87 96 102 105 105 103 102 100 99 94 88 84 78 71 63 53 49 48
18 12 6 1 3 5 7 10 13 16 19 24 29 36 43 49 56 62 68 74 82 90 96 100 101 99 99 97 96 92 87 83 78 71 65 59 52 49
20 13 8 5 4 5 7 9 11 14 18 23 28 35 42 49 54 59 64 70 77 85 91 94 95 93 93 93 90 88 86 82 77 72 66 61 57 52
22 15 10 7 6 7 7 9 10 12 17 22 27 34 41 48 52 56 60 66 73 80 87 89 89 88 86 86 85 84 82 79 75 71 67 63 59 55
24 17 12 9 8 8 8 8 9 11 15 21 26 33 40 46 50 54 57 62 69 75 83 86 85 84 82 79 79 79 79 76 73 70 67 64 60 56
25 18 13 10 9 9 9 8 8 10 14 20 26 32 38 44 48 51 54 58 63 70 78 82 83 81 76 72 72 74 74 73 71 67 65 64 62 59
27 20 14 10 8 8 9 8 8 10 14 19 26 32 37 42 46 48 50 53 59 66 73 77 79 78 75 72 70 69 70 71 71 68 65 63 62 60
29 21 15 10 7 7 8 8 8 10 14 18 25 31 36 40 44 45 47 49 54 60 68 74 77 76 73 70 68 66 67 69 69 67 66 64 63 62
34 24 17 11 7 6 7 8 9 11 14 18 24 29 34 39 41 43 44 46 50 54 62 70 75 75 73 70 66 65 65 66 67 67 66 65 64 62
38 29 19 12 7 5 5 7 9 11 14 18 23 28 32 36 39 40 42 44 47 51 58 66 72 74 73 68 65 64 64 65 65 65 64 63 64 63
40 33 24 15 8 4 4 7 9 11 14 18 22 26 30 34 37 39 41 43 46 49 54 61 68 72 73 69 65 63 63 62 62 64 64 63 61 61
38 36 29 20 11 4 3 6 9 12 15 18 21 25 29 32 35 37 39 42 45 48 51 57 63 69 71 68 65 63 63 63 62 63 63 63 61 60
36 36 33 26 17 7 1 6 10 13 15 18 21 24 27 30 33 35 38 40 44 47 50 54 59 64 68 67 65 65 63 63 63 62 60 61 61 61
34 35 35 32 23 13 3 5 11 14 16 19 21 23 26 28 31 34 37 39 42 46 51 54 57 60 64 66 65 64 63 63 63 63 62 60 59 58
33 33 35 35 30 21 10 3 10 15 18 20 22 23 24 26 28 31 35 39 42 45 51 56 58 59 61 63 64 62 61 60 61 62 62 61 59 57
Wind_Direction
359 359 340 254 226 220 218 218 219 221 225 227 226 222 218 214 212 210 207 205 205 204 205 205 205 205 206 208 210 213 215 218 220 223 224 224 224 225
345 346 332 266 229 221 219 219 219 220 223 226 226 222 217 214 211 210 208 205 204 204 204 204 204 204 205 206 209 212 215 217 219 222 224 225 228 227
326 321 305 264 232 223 219 218 219 219 221 225 226 222 217 213 210 209 207 205 202 202 203 204 204 204 204 205 207 210 212 215 218 220 222 225 226 226
313 300 281 251 227 221 218 218 219 219 221 224 225 222 216 211 209 207 206 205 202 201 202 203 203 204 203 204 206 208 210 212 214 217 219 221 223 225
312 292 270 247 228 219 217 216 217 218 220 222 223 220 214 209 206 205 205 204 202 201 201 202 203 204 203 204 205 207 209 211 212 214 217 218 219 219
324 298 268 245 229 219 215 214 215 216 218 220 220 217 210 205 203 203 203 203 202 200 201 202 203 204 204 204 205 206 207 210 212 210 212 213 214 216
338 320 274 241 227 217 212 211 211 213 215 215 215 211 205 201 199 200 201 202 202 201 200 201 203 204 205 204 205 206 208 209 211 211 211 212 213 213
349 338 296 242 227 211 205 203 205 207 208 209 208 204 200 196 196 197 198 200 201 200 200 201 203 205 206 206 206 207 208 211 213 214 214 216 215 213
0 355 338 247 218 203 198 196 197 198 200 201 201 198 194 192 192 194 196 199 200 200 200 201 203 205 207 208 209 210 211 213 216 219 218 219 217 214
9 10 13 22 179 179 182 183 185 188 192 194 194 191 189 188 189 191 194 197 199 199 200 201 203 205 208 209 210 211 213 215 217 219 221 223 221 218
16 22 35 65 115 142 156 164 172 180 186 187 187 186 184 184 186 188 192 195 197 198 199 200 202 205 208 210 211 212 214 216 217 219 221 222 223 220
20 28 42 64 94 119 135 148 159 173 180 182 183 182 181 182 183 185 189 193 196 198 198 198 200 203 206 210 212 212 213 215 216 218 220 221 223 221
22 31 43 64 89 106 117 132 146 163 175 178 178 178 178 179 181 183 187 191 194 197 198 197 198 200 202 206 210 212 213 214 215 216 216 217 218 218
23 31 44 64 86 101 108 119 137 156 169 175 176 175 175 177 180 183 186 189 193 196 197 197 197 197 199 203 207 210 211 212 213 214 215 215 216 216
24 30 41 60 84 99 109 116 133 151 164 171 174 173 173 175 178 181 184 188 192 195 197 197 196 196 197 200 204 207 209 210 210 211 212 212 213 215
24 29 37 52 78 96 113 122 133 151 162 168 172 172 173 174 176 179 183 185 189 193 196 197 196 195 195 196 199 203 207 209 210 210 212 212 213 214
23 26 31 43 64 94 113 127 137 151 162 167 170 172 172 174 176 179 181 184 187 190 195 197 197 196 193 192 194 198 203 205 208 209 211 212 213 214
23 24 26 33 51 83 120 137 147 154 162 167 171 174 174 175 177 179 181 183 185 188 192 196 197 197 195 194 195 197 199 203 205 207 209 212 213 214
22 23 24 27 37 70 125 151 159 164 166 169 173 176 177 178 179 180 182 183 185 186 189 194 197 199 200 197 195 196 197 199 204 205 207 208 211 213
21 22 23 24 26 41 146 166 172 174 174 174 175 178 181 182 183 184 185 185 186 187 188 191 195 199 201 201 199 197 197 199 202 205 207 208 209 210
19 21 21 21 20 21 176 189 185 184 183 182 182 182 184 186 188 189 189 189 189 188 187 189 193 196 200 202 203 202 200 200 201 203 205 208 209 210
16 18 19 19 19 14 356 212 201 196 192 190 188 188 188 189 191 193 194 193 193 192 190 189 190 193 197 200 203 205 205 204 204 205 206 206 208 210
15 16 18 18 18 16 5 268 215 206 201 197 195 193 192 193 194 195 197 197 196 196 194 191 189 190 193 197 200 203 205 206 207 208 209 208 208 208
Height
5275 5271 5268 5268 5269 5273 5280 5289 5300 5310 5319 5327 5337 5347 5360 5377 5397 5419 5443 5469 5495 5521 5546 5568 5589 5608 5626 5643 5658 5671 5684 5696 5708 5719 5729 5738 5747 5756
5277 5273 5270 5269 5270 5272 5277 5284 5292 5301 5310 5317 5326 5337 5350 5366 5385 5406 5429 5455 5481 5507 5531 5554 5575 5595 5613 5630 5646 5660 5673 5685 5697 5708 5718 5728 5737 5746
5276 5273 5270 5269 5270 5272 5275 5280 5286 5294 5302 5309 5318 5329 5341 5356 5374 5395 5417 5441 5466 5492 5516 5539 5561 5581 5600 5618 5634 5649 5662 5673 5684 5696 5707 5718 5727 5737
5275 5271 5269 5268 5268 5270 5273 5277 5282 5289 5297 5303 5311 5322 5334 5348 5365 5385 5406 5429 5454 5478 5502 5525 5547 5568 5587 5605 5621 5637 5650 5661 5672 5683 5695 5706 5716 5726
5272 5270 5268 5267 5268 5269 5271 5275 5279 5285 5291 5298 5305 5315 5327 5341 5358 5377 5397 5419 5442 5466 5490 5513 5534 5555 5574 5592 5609 5625 5639 5652 5662 5673 5683 5694 5705 5716
5271 5268 5267 5266 5267 5268 5270 5273 5277 5281 5287 5293 5300 5310 5322 5335 5351 5369 5389 5409 5432 5455 5478 5501 5522 5542 5562 5580 5598 5614 5628 5641 5652 5663 5673 5684 5695 5706
5270 5267 5266 5266 5266 5267 5269 5272 5275 5279 5284 5289 5296 5305 5317 5330 5346 5362 5382 5402 5424 5445 5468 5490 5511 5532 5550 5568 5584 5601 5616 5630 5642 5653 5664 5676 5686 5696
5270 5267 5266 5266 5266 5267 5269 5271 5274 5277 5281 5287 5293 5302 5314 5327 5342 5359 5377 5395 5416 5437 5459 5481 5501 5520 5539 5557 5574 5590 5605 5619 5632 5644 5656 5667 5678 5688
5271 5268 5266 5266 5266 5268 5269 5271 5273 5277 5281 5285 5292 5301 5312 5325 5340 5355 5372 5390 5410 5430 5452 5473 5493 5512 5530 5547 5564 5580 5595 5609 5623 5636 5649 5660 5670 5681
5274 5270 5268 5267 5268 5269 5270 5272 5275 5278 5281 5286 5292 5301 5312 5324 5338 5353 5369 5387 5406 5426 5446 5467 5486 5504 5521 5538 5555 5571 5586 5600 5615 5628 5641 5653 5664 5674
5278 5274 5272 5271 5271 5271 5273 5275 5277 5280 5283 5287 5293 5301 5312 5324 5337 5352 5367 5383 5401 5420 5439 5460 5479 5496 5513 5529 5546 5563 5578 5592 5607 5621 5633 5646 5657 5667
5283 5279 5277 5275 5275 5276 5277 5279 5281 5283 5286 5290 5296 5303 5313 5324 5337 5351 5365 5381 5397 5414 5432 5453 5472 5489 5506 5521 5537 5554 5569 5585 5600 5613 5627 5638 5649 5660
5290 5286 5283 5281 5281 5281 5282 5283 5285 5287 5289 5293 5299 5306 5315 5326 5338 5351 5365 5379 5394 5411 5428 5447 5466 5482 5501 5516 5530 5546 5562 5578 5592 5606 5619 5631 5642 5653
5297 5292 5289 5288 5287 5287 5288 5288 5290 5292 5294 5298 5303 5310 5318 5328 5340 5352 5365 5377 5392 5408 5424 5442 5460 5478 5495 5509 5523 5538 5554 5570 5585 5599 5611 5623 5634 5645
5304 5299 5296 5294 5293 5293 5294 5294 5295 5297 5299 5303 5307 5314 5322 5331 5342 5353 5365 5377 5391 5405 5421 5438 5455 5471 5488 5503 5517 5531 5546 5561 5576 5590 5603 5615 5626 5637
5311 5306 5302 5300 5299 5299 5299 5300 5301 5302 5304 5308 5312 5318 5326 5334 5344 5355 5366 5377 5390 5403 5417 5434 5450 5467 5483 5497 5511 5525 5539 5554 5568 5582 5595 5607 5618 5629
5317 5312 5308 5306 5305 5305 5305 5305 5306 5308 5310 5313 5317 5323 5330 5338 5347 5356 5366 5377 5388 5400 5414 5429 5445 5461 5476 5490 5504 5518 5532 5546 5560 5574 5587 5599 5610 5621
5324 5318 5314 5311 5310 5309 5309 5310 5311 5313 5315 5318 5322 5327 5333 5341 5349 5358 5367 5376 5387 5399 5411 5426 5441 5455 5470 5484 5497 5511 5524 5538 5552 5566 5579 5591 5602 5613
5331 5325 5319 5316 5314 5313 5313 5314 5315 5317 5319 5322 5326 5331 5336 5343 5351 5359 5367 5376 5386 5396 5408 5421 5435 5449 5463 5477 5490 5504 5518 5531 5543 5556 5570 5582 5594 5605
5338 5331 5325 5320 5318 5316 5316 5317 5318 5320 5322 5325 5329 5333 5339 5345 5352 5359 5367 5375 5384 5394 5405 5417 5430 5443 5457 5471 5485 5498 5510 5524 5536 5548 5560 5572 5584 5595
5343 5337 5330 5324 5320 5318 5318 5318 5320 5322 5324 5327 5331 5335 5340 5345 5352 5358 5366 5374 5382 5392 5402 5413 5425 5438 5451 5464 5477 5490 5503 5515 5528 5541 5553 5564 5575 5586
5348 5341 5334 5328 5323 5320 5318 5318 5320 5322 5324 5327 5331 5335 5339 5345 5350 5357 5364 5371 5379 5388 5398 5409 5420 5432 5445 5458 5471 5483 5496 5508 5519 5530 5543 5557 5568 5580
5351 5345 5338 5332 5325 5321 5318 5317 5318 5320 5323 5326 5330 5333 5338 5343 5348 5354 5361 5368 5376 5384 5394 5404 5415 5427 5438 5451 5464 5476 5488 5500 5511 5522 5534 5546 5558 5569